Data No.,UTC Date,UTC Time,Latitude,Longitude,Course(deg),Temp(degC),Sal(psu)
21,2015/6/12,21:51:00,29-57.2600S,153-32.1300E,16,22.696,35.4829
22,2015/6/12,21:52:00,29-57.0900S,153-32.1900E,19,22.692,35.4809
23,2015/6/12,21:53:00,29-56.9300S,153-32.2600E,20,22.695,35.4778
24,2015/6/12,21:54:00,29-56.7700S,153-32.3300E,19,22.697,35.4784
25,2015/6/12,21:55:00,29-56.5900S,153-32.4000E,18,22.698,35.4808
26,2015/6/12,21:56:00,29-56.4300S,153-32.4600E,17,22.697,35.4798
27,2015/6/12,21:57:00,29-56.2600S,153-32.5300E,18,22.695,35.4815
28,2015/6/12,21:58:00,29-56.0900S,153-32.5900E,18,22.692,35.4815
29,2015/6/12,21:59:00,29-55.9200S,153-32.6500E,16,22.696,35.4801
30,2015/6/12,22:00:00,29-55.7500S,153-32.7000E,11,22.676,35.4793
31,2015/6/12,22:01:00,29-55.5700S,153-32.7300E,6,22.681,35.4748
32,2015/6/12,22:02:00,29-55.3900S,153-32.7500E,5,22.689,35.4701
33,2015/6/12,22:03:00,29-55.2100S,153-32.7800E,8,22.686,35.4774
34,2015/6/12,22:04:00,29-55.0200S,153-32.8100E,9,22.681,35.4792
35,2015/6/12,22:05:00,29-54.8400S,153-32.8400E,8,22.687,35.4804
36,2015/6/12,22:06:00,29-54.6500S,153-32.8700E,7,22.685,35.4857
37,2015/6/12,22:07:00,29-54.4500S,153-32.9000E,6,22.679,35.4875
38,2015/6/12,22:08:00,29-54.2600S,153-32.9300E,7,22.683,35.4856
39,2015/6/12,22:09:00,29-54.0700S,153-32.9600E,7,22.685,35.4858
40,2015/6/12,22:10:00,29-53.8800S,153-32.9900E,8,22.687,35.488
41,2015/6/12,22:11:00,29-53.6800S,153-33.0300E,9,22.693,35.4906
42,2015/6/12,22:12:00,29-53.4900S,153-33.0600E,8,22.694,35.492
43,2015/6/12,22:13:00,29-53.2900S,153-33.1000E,7,22.693,35.4924
44,2015/6/12,22:14:00,29-53.0800S,153-33.1300E,7,22.692,35.4927
45,2015/6/12,22:15:00,29-52.8900S,153-33.1600E,7,22.69,35.493
46,2015/6/12,22:16:00,29-52.6900S,153-33.1900E,9,22.689,35.4929
47,2015/6/12,22:17:00,29-52.4800S,153-33.2300E,9,22.686,35.4932
48,2015/6/12,22:18:00,29-52.2800S,153-33.2700E,8,22.684,35.4938
49,2015/6/12,22:19:00,29-52.0800S,153-33.3000E,7,22.679,35.494
50,2015/6/12,22:20:00,29-51.8700S,153-33.3300E,5,22.679,35.4942
51,2015/6/12,22:21:00,29-51.6500S,153-33.3600E,5,22.676,35.4938
52,2015/6/12,22:22:00,29-51.4400S,153-33.3900E,7,22.675,35.4935
53,2015/6/12,22:23:00,29-51.2400S,153-33.4200E,8,22.671,35.4948
54,2015/6/12,22:24:00,29-51.0300S,153-33.4600E,8,22.673,35.495
55,2015/6/12,22:25:00,29-50.8200S,153-33.4900E,8,22.672,35.4952
56,2015/6/12,22:26:00,29-50.6100S,153-33.5200E,7,22.671,35.4944
57,2015/6/12,22:27:00,29-50.4000S,153-33.5500E,7,22.665,35.4948
58,2015/6/12,22:28:00,29-50.1900S,153-33.5900E,7,22.663,35.4939
59,2015/6/12,22:29:00,29-49.9900S,153-33.6200E,8,22.656,35.4939
60,2015/6/12,22:30:00,29-49.7700S,153-33.6600E,8,22.656,35.4934
61,2015/6/12,22:31:00,29-49.5600S,153-33.6900E,8,22.607,35.4923
62,2015/6/12,22:32:00,29-49.3600S,153-33.7300E,8,22.613,35.4936
63,2015/6/12,22:33:00,29-49.1400S,153-33.7700E,8,22.616,35.4938
64,2015/6/12,22:34:00,29-48.9300S,153-33.8000E,7,22.616,35.4964
65,2015/6/12,22:35:00,29-48.7200S,153-33.8300E,8,22.618,35.4973
66,2015/6/12,22:36:00,29-48.5100S,153-33.8700E,8,22.616,35.4961
67,2015/6/12,22:37:00,29-48.3000S,153-33.9000E,8,22.615,35.4963
68,2015/6/12,22:38:00,29-48.0900S,153-33.9400E,8,22.609,35.4963
69,2015/6/12,22:39:00,29-47.8800S,153-33.9900E,14,22.606,35.495
70,2015/6/12,22:40:00,29-47.6800S,153-34.0500E,14,22.605,35.495
71,2015/6/12,22:41:00,29-47.4700S,153-34.1100E,12,22.603,35.4929
72,2015/6/12,22:42:00,29-47.2600S,153-34.1500E,11,22.603,35.4921
73,2015/6/12,22:43:00,29-47.0600S,153-34.2000E,11,22.603,35.4936
74,2015/6/12,22:44:00,29-46.8500S,153-34.2700E,16,22.599,35.4935
75,2015/6/12,22:45:00,29-46.6400S,153-34.3400E,18,22.599,35.4948
76,2015/6/12,22:46:00,29-46.4500S,153-34.4200E,17,22.6,35.4944
77,2015/6/12,22:47:00,29-46.2200S,153-34.4900E,14,22.6,35.4944
78,2015/6/12,22:48:00,29-46.0200S,153-34.5500E,15,22.602,35.4945
79,2015/6/12,22:49:00,29-45.8200S,153-34.6200E,16,22.603,35.495
80,2015/6/12,22:50:00,29-45.6100S,153-34.6900E,16,22.603,35.4951
81,2015/6/12,22:51:00,29-45.4100S,153-34.7600E,16,22.606,35.4948
82,2015/6/12,22:52:00,29-45.2100S,153-34.8200E,15,22.604,35.4953
83,2015/6/12,22:53:00,29-45.0000S,153-34.8900E,15,22.606,35.496
84,2015/6/12,22:54:00,29-44.7900S,153-34.9500E,16,22.606,35.4943
85,2015/6/12,22:55:00,29-44.5900S,153-35.0200E,16,22.605,35.4951
86,2015/6/12,22:56:00,29-44.3800S,153-35.1000E,17,22.604,35.495
87,2015/6/12,22:57:00,29-44.1800S,153-35.1700E,16,22.6,35.4937
88,2015/6/12,22:58:00,29-43.9700S,153-35.2300E,15,22.601,35.4939
89,2015/6/12,22:59:00,29-43.7700S,153-35.3000E,16,22.596,35.4941
90,2015/6/12,23:00:00,29-43.5600S,153-35.3700E,16,22.593,35.4939
91,2015/6/12,23:01:00,29-43.3500S,153-35.4400E,16,22.59,35.4943
92,2015/6/12,23:02:00,29-43.1400S,153-35.5100E,16,22.59,35.4934
93,2015/6/12,23:03:00,29-42.9400S,153-35.5700E,16,22.584,35.4947
94,2015/6/12,23:04:00,29-42.7300S,153-35.6400E,16,22.578,35.4956
95,2015/6/12,23:05:00,29-42.5200S,153-35.7100E,15,22.569,35.4952
96,2015/6/12,23:06:00,29-42.3200S,153-35.7800E,15,22.559,35.4953
97,2015/6/12,23:07:00,29-42.1000S,153-35.8500E,15,22.551,35.4951
98,2015/6/12,23:08:00,29-41.9000S,153-35.9100E,15,22.543,35.4941
99,2015/6/12,23:09:00,29-41.6900S,153-35.9800E,16,22.536,35.4935
100,2015/6/12,23:10:00,29-41.4800S,153-36.0500E,16,22.534,35.4931
101,2015/6/12,23:11:00,29-41.2700S,153-36.1200E,15,22.533,35.4941
102,2015/6/12,23:12:00,29-41.0700S,153-36.1800E,15,22.535,35.4942
103,2015/6/12,23:13:00,29-40.8600S,153-36.2500E,16,22.534,35.4934
104,2015/6/12,23:14:00,29-40.6400S,153-36.3300E,15,22.533,35.492
105,2015/6/12,23:15:00,29-40.4300S,153-36.4000E,17,22.531,35.4939
106,2015/6/12,23:16:00,29-40.2300S,153-36.4800E,19,22.529,35.4939
107,2015/6/12,23:17:00,29-40.0300S,153-36.5600E,18,22.524,35.4936
108,2015/6/12,23:18:00,29-39.8200S,153-36.6300E,17,22.522,35.4935
109,2015/6/12,23:19:00,29-39.6200S,153-36.7100E,18,22.517,35.4938
110,2015/6/12,23:20:00,29-39.4100S,153-36.7900E,18,22.512,35.4932
111,2015/6/12,23:21:00,29-39.2100S,153-36.8700E,18,22.501,35.4928
112,2015/6/12,23:22:00,29-39.0100S,153-36.9500E,18,22.491,35.4918
113,2015/6/12,23:23:00,29-38.8100S,153-37.0300E,17,22.482,35.4918
114,2015/6/12,23:24:00,29-38.6000S,153-37.1000E,15,22.467,35.4912
115,2015/6/12,23:25:00,29-38.3900S,153-37.1700E,16,22.465,35.4908
116,2015/6/12,23:26:00,29-38.1900S,153-37.2400E,18,22.448,35.4916
117,2015/6/12,23:27:00,29-37.9900S,153-37.3300E,19,22.444,35.4908
118,2015/6/12,23:28:00,29-37.7800S,153-37.4100E,17,22.446,35.4923
119,2015/6/12,23:29:00,29-37.5800S,153-37.4800E,16,22.447,35.4924
120,2015/6/12,23:30:00,29-37.3700S,153-37.5500E,15,22.44,35.4917
121,2015/6/12,23:31:00,29-37.1600S,153-37.6200E,17,22.437,35.4928
122,2015/6/12,23:32:00,29-36.9600S,153-37.6900E,17,22.428,35.4918
123,2015/6/12,23:33:00,29-36.7500S,153-37.7700E,18,22.424,35.4921
124,2015/6/12,23:34:00,29-36.5500S,153-37.8500E,18,22.419,35.4915
125,2015/6/12,23:35:00,29-36.3400S,153-37.9200E,17,22.417,35.4912
126,2015/6/12,23:36:00,29-36.1400S,153-38.0000E,17,22.419,35.4905
127,2015/6/12,23:37:00,29-35.9300S,153-38.0700E,17,22.42,35.4913
128,2015/6/12,23:38:00,29-35.7200S,153-38.1500E,17,22.432,35.4906
129,2015/6/12,23:39:00,29-35.5200S,153-38.2300E,18,22.44,35.4917
130,2015/6/12,23:40:00,29-35.3200S,153-38.3100E,18,22.449,35.4918
131,2015/6/12,23:41:00,29-35.0900S,153-38.3900E,17,22.458,35.4923
132,2015/6/12,23:42:00,29-34.8900S,153-38.4600E,17,22.462,35.4927
133,2015/6/12,23:43:00,29-34.6800S,153-38.5300E,15,22.469,35.4933
134,2015/6/12,23:44:00,29-34.4700S,153-38.5800E,10,22.472,35.4934
135,2015/6/12,23:45:00,29-34.2500S,153-38.6200E,10,22.477,35.4931
136,2015/6/12,23:46:00,29-34.0500S,153-38.6700E,12,22.488,35.4922
137,2015/6/12,23:47:00,29-33.8300S,153-38.7300E,12,22.497,35.491
138,2015/6/12,23:48:00,29-33.6200S,153-38.7800E,11,22.501,35.4909
139,2015/6/12,23:49:00,29-33.4100S,153-38.8300E,11,22.509,35.491
140,2015/6/12,23:50:00,29-33.2000S,153-38.8800E,12,22.512,35.4901
141,2015/6/12,23:51:00,29-32.9900S,153-38.9400E,12,22.514,35.4917
142,2015/6/12,23:52:00,29-32.7800S,153-38.9800E,11,22.511,35.4914
143,2015/6/12,23:53:00,29-32.5600S,153-39.0300E,11,22.5,35.4916
144,2015/6/12,23:54:00,29-32.3600S,153-39.0800E,12,22.481,35.4929
145,2015/6/12,23:55:00,29-32.1400S,153-39.1400E,12,22.47,35.4933
146,2015/6/12,23:56:00,29-31.9300S,153-39.1800E,10,22.458,35.4925
147,2015/6/12,23:57:00,29-31.7100S,153-39.2300E,9,22.439,35.4918
148,2015/6/12,23:58:00,29-31.5000S,153-39.2700E,9,22.42,35.491
149,2015/6/12,23:59:00,29-31.2900S,153-39.3100E,10,22.39,35.491
150,2015/6/13,0:00:00,29-31.0700S,153-39.3700E,13,22.342,35.4913
151,2015/6/13,0:01:00,29-30.8600S,153-39.4300E,14,22.341,35.4905
152,2015/6/13,0:02:00,29-30.6500S,153-39.4800E,11,22.349,35.4901
153,2015/6/13,0:03:00,29-30.4400S,153-39.5300E,10,22.355,35.4899
154,2015/6/13,0:04:00,29-30.2200S,153-39.5700E,9,22.355,35.491
155,2015/6/13,0:05:00,29-30.0100S,153-39.6200E,10,22.335,35.4921
156,2015/6/13,0:06:00,29-29.8000S,153-39.6700E,11,22.316,35.4926
157,2015/6/13,0:07:00,29-29.5800S,153-39.7200E,12,22.308,35.4908
158,2015/6/13,0:08:00,29-29.3600S,153-39.7800E,12,22.301,35.4879
159,2015/6/13,0:09:00,29-29.1400S,153-39.8300E,12,22.311,35.4881
160,2015/6/13,0:10:00,29-28.9300S,153-39.8800E,11,22.321,35.4863
161,2015/6/13,0:11:00,29-28.7100S,153-39.9300E,11,22.33,35.488
162,2015/6/13,0:12:00,29-28.5000S,153-39.9800E,10,22.33,35.4887
163,2015/6/13,0:13:00,29-28.2800S,153-40.0300E,10,22.329,35.4879
164,2015/6/13,0:14:00,29-28.0700S,153-40.0700E,12,22.322,35.4894
165,2015/6/13,0:15:00,29-27.8600S,153-40.1300E,12,22.317,35.4878
166,2015/6/13,0:16:00,29-27.6400S,153-40.1800E,13,22.311,35.486
167,2015/6/13,0:17:00,29-27.4300S,153-40.2400E,12,22.307,35.4855
168,2015/6/13,0:18:00,29-27.2200S,153-40.2900E,11,22.303,35.4864
169,2015/6/13,0:19:00,29-27.0000S,153-40.3400E,10,22.304,35.4848
170,2015/6/13,0:20:00,29-26.7900S,153-40.3800E,10,22.306,35.4845
171,2015/6/13,0:21:00,29-26.5700S,153-40.4300E,11,22.306,35.4853
172,2015/6/13,0:22:00,29-26.3600S,153-40.4800E,12,22.303,35.4851
173,2015/6/13,0:23:00,29-26.1500S,153-40.5300E,11,22.302,35.4843
174,2015/6/13,0:24:00,29-25.9400S,153-40.5900E,12,22.297,35.4846
175,2015/6/13,0:25:00,29-25.7200S,153-40.6400E,11,22.293,35.4863
176,2015/6/13,0:26:00,29-25.5100S,153-40.6900E,11,22.289,35.487
177,2015/6/13,0:27:00,29-25.3000S,153-40.7400E,11,22.287,35.4865
178,2015/6/13,0:28:00,29-25.0900S,153-40.7900E,10,22.285,35.4866
179,2015/6/13,0:29:00,29-24.8700S,153-40.8400E,10,22.284,35.4869
180,2015/6/13,0:30:00,29-24.6600S,153-40.8800E,10,22.286,35.4876
181,2015/6/13,0:31:00,29-24.4500S,153-40.9300E,10,22.287,35.4874
182,2015/6/13,0:32:00,29-24.2300S,153-40.9800E,12,22.292,35.4874
183,2015/6/13,0:33:00,29-24.0200S,153-41.0300E,11,22.3,35.4899
184,2015/6/13,0:34:00,29-23.8100S,153-41.0800E,10,22.305,35.4919
185,2015/6/13,0:35:00,29-23.6000S,153-41.1300E,11,22.313,35.4948
186,2015/6/13,0:36:00,29-23.3800S,153-41.1800E,12,22.31,35.4974
187,2015/6/13,0:37:00,29-23.1700S,153-41.2400E,13,22.295,35.4994
188,2015/6/13,0:38:00,29-22.9600S,153-41.3000E,12,22.274,35.4966
189,2015/6/13,0:39:00,29-22.7500S,153-41.3500E,10,22.268,35.4927
190,2015/6/13,0:40:00,29-22.5400S,153-41.3900E,10,22.256,35.4883
191,2015/6/13,0:41:00,29-22.3200S,153-41.4500E,15,22.254,35.4878
192,2015/6/13,0:42:00,29-22.1200S,153-41.5200E,16,22.27,35.4866
193,2015/6/13,0:43:00,29-21.9100S,153-41.5900E,13,22.288,35.4884
194,2015/6/13,0:44:00,29-21.7000S,153-41.6400E,13,22.295,35.4932
195,2015/6/13,0:45:00,29-21.4900S,153-41.7000E,14,22.312,35.4963
196,2015/6/13,0:46:00,29-21.2800S,153-41.7700E,14,22.303,35.4981
197,2015/6/13,0:47:00,29-21.0700S,153-41.8300E,13,22.315,35.4973
198,2015/6/13,0:48:00,29-20.8600S,153-41.8800E,12,22.337,35.4931
199,2015/6/13,0:49:00,29-20.6500S,153-41.9300E,12,22.335,35.4887
200,2015/6/13,0:50:00,29-20.4400S,153-41.9900E,13,22.348,35.488
201,2015/6/13,0:51:00,29-20.2300S,153-42.0500E,13,22.359,35.4892
202,2015/6/13,0:52:00,29-20.0200S,153-42.1100E,13,22.365,35.4926
203,2015/6/13,0:53:00,29-19.8100S,153-42.1800E,14,22.374,35.497
204,2015/6/13,0:54:00,29-19.6000S,153-42.2400E,15,22.383,35.497
205,2015/6/13,0:55:00,29-19.3900S,153-42.3000E,14,22.39,35.4986
206,2015/6/13,0:56:00,29-19.1800S,153-42.3700E,17,22.392,35.5003
207,2015/6/13,0:57:00,29-18.9800S,153-42.4500E,20,22.394,35.5026
208,2015/6/13,0:58:00,29-18.7800S,153-42.5400E,20,22.398,35.5021
209,2015/6/13,0:59:00,29-18.5800S,153-42.6100E,17,22.393,35.5023
210,2015/6/13,1:00:00,29-18.3900S,153-42.6800E,16,22.386,35.5005
211,2015/6/13,1:01:00,29-18.2000S,153-42.7500E,17,22.381,35.5005
212,2015/6/13,1:02:00,29-18.0100S,153-42.8200E,18,22.365,35.4992
213,2015/6/13,1:03:00,29-17.8100S,153-42.8900E,18,22.341,35.4978
214,2015/6/13,1:04:00,29-17.6300S,153-42.9700E,18,22.321,35.4944
215,2015/6/13,1:05:00,29-17.4500S,153-43.0300E,17,22.319,35.4889
216,2015/6/13,1:06:00,29-17.2600S,153-43.1000E,17,22.319,35.4873
217,2015/6/13,1:07:00,29-17.0800S,153-43.1600E,17,22.321,35.4864
218,2015/6/13,1:08:00,29-16.9000S,153-43.2200E,17,22.323,35.4867
219,2015/6/13,1:09:00,29-16.7200S,153-43.2900E,18,22.335,35.4868
220,2015/6/13,1:10:00,29-16.5400S,153-43.3600E,19,22.343,35.4884
221,2015/6/13,1:11:00,29-16.3700S,153-43.4300E,18,22.344,35.4927
222,2015/6/13,1:12:00,29-16.2000S,153-43.4900E,16,22.328,35.4943
223,2015/6/13,1:13:00,29-16.0100S,153-43.5400E,14,22.324,35.4897
224,2015/6/13,1:14:00,29-15.8400S,153-43.5900E,13,22.322,35.4878
225,2015/6/13,1:15:00,29-15.6600S,153-43.6400E,13,22.321,35.4867
226,2015/6/13,1:16:00,29-15.4800S,153-43.6900E,13,22.32,35.486
227,2015/6/13,1:17:00,29-15.3100S,153-43.7400E,13,22.32,35.4862
228,2015/6/13,1:18:00,29-15.1200S,153-43.7900E,12,22.32,35.4864
229,2015/6/13,1:19:00,29-14.9500S,153-43.8400E,13,22.32,35.4866
230,2015/6/13,1:20:00,29-14.7700S,153-43.8900E,14,22.324,35.4872
231,2015/6/13,1:21:00,29-14.5900S,153-43.9400E,13,22.326,35.4868
232,2015/6/13,1:22:00,29-14.4100S,153-43.9900E,12,22.327,35.4854
233,2015/6/13,1:23:00,29-14.2400S,153-44.0300E,12,22.328,35.4849
234,2015/6/13,1:24:00,29-14.0600S,153-44.0800E,11,22.36,35.4845
235,2015/6/13,1:25:00,29-13.8700S,153-44.1200E,12,22.373,35.4886
236,2015/6/13,1:26:00,29-13.7000S,153-44.1700E,13,22.379,35.494
237,2015/6/13,1:27:00,29-13.5200S,153-44.2200E,14,22.386,35.4937
238,2015/6/13,1:28:00,29-13.3400S,153-44.2700E,13,22.396,35.4962
239,2015/6/13,1:29:00,29-13.1500S,153-44.3200E,12,22.404,35.4967
240,2015/6/13,1:30:00,29-12.9700S,153-44.3700E,13,22.407,35.4983
241,2015/6/13,1:31:00,29-12.7900S,153-44.4200E,13,22.408,35.4991
242,2015/6/13,1:32:00,29-12.6100S,153-44.4700E,13,22.422,35.4991
243,2015/6/13,1:33:00,29-12.4300S,153-44.5200E,14,22.428,35.4994
244,2015/6/13,1:34:00,29-12.2600S,153-44.5700E,13,22.427,35.5007
245,2015/6/13,1:35:00,29-12.0800S,153-44.6200E,15,22.425,35.5023
246,2015/6/13,1:36:00,29-11.9000S,153-44.6800E,14,22.427,35.5018
247,2015/6/13,1:37:00,29-11.7200S,153-44.7200E,13,22.441,35.5015
248,2015/6/13,1:38:00,29-11.5400S,153-44.7700E,13,22.45,35.5033
249,2015/6/13,1:39:00,29-11.3600S,153-44.8200E,12,22.456,35.5032
250,2015/6/13,1:40:00,29-11.1800S,153-44.8700E,12,22.461,35.5038
251,2015/6/13,1:41:00,29-11.0000S,153-44.9200E,15,22.465,35.5033
252,2015/6/13,1:42:00,29-10.8300S,153-44.9800E,18,22.465,35.5029
253,2015/6/13,1:43:00,29-10.6600S,153-45.0400E,18,22.461,35.5031
254,2015/6/13,1:44:00,29-10.4800S,153-45.1000E,16,22.457,35.503
255,2015/6/13,1:45:00,29-10.3000S,153-45.1600E,14,22.451,35.5032
256,2015/6/13,1:46:00,29-10.1300S,153-45.2100E,14,22.442,35.5039
257,2015/6/13,1:47:00,29-09.9500S,153-45.2600E,15,22.429,35.5043
258,2015/6/13,1:48:00,29-09.7700S,153-45.3200E,15,22.421,35.5043
259,2015/6/13,1:49:00,29-09.5900S,153-45.3800E,15,22.408,35.5051
260,2015/6/13,1:50:00,29-09.4200S,153-45.4400E,15,22.399,35.5052
261,2015/6/13,1:51:00,29-09.2400S,153-45.5000E,16,22.376,35.505
262,2015/6/13,1:52:00,29-09.0700S,153-45.5600E,19,22.351,35.5059
263,2015/6/13,1:53:00,29-08.8900S,153-45.6400E,22,22.317,35.5062
264,2015/6/13,1:54:00,29-08.7200S,153-45.7200E,21,22.29,35.5064
265,2015/6/13,1:55:00,29-08.5500S,153-45.7900E,17,22.272,35.5074
266,2015/6/13,1:56:00,29-08.3600S,153-45.8400E,13,22.266,35.5076
267,2015/6/13,1:57:00,29-08.1800S,153-45.8900E,11,22.26,35.5092
268,2015/6/13,1:58:00,29-08.0000S,153-45.9400E,14,22.24,35.5104
269,2015/6/13,1:59:00,29-07.8200S,153-46.0000E,17,22.202,35.5119
270,2015/6/13,2:00:00,29-07.6500S,153-46.0700E,21,22.145,35.5131
271,2015/6/13,2:01:00,29-07.4900S,153-46.1500E,23,22.152,35.5143
272,2015/6/13,2:02:00,29-07.3200S,153-46.2300E,21,22.169,35.5126
273,2015/6/13,2:03:00,29-07.1500S,153-46.3000E,16,22.182,35.5109
274,2015/6/13,2:04:00,29-06.9700S,153-46.3500E,12,22.215,35.5101
275,2015/6/13,2:05:00,29-06.8000S,153-46.3900E,11,22.246,35.509
276,2015/6/13,2:06:00,29-06.6300S,153-46.4400E,13,22.269,35.5075
277,2015/6/13,2:07:00,29-06.4500S,153-46.4900E,14,22.297,35.5051
278,2015/6/13,2:08:00,29-06.2700S,153-46.5400E,14,22.32,35.5039
279,2015/6/13,2:09:00,29-06.0900S,153-46.5900E,14,22.336,35.5024
280,2015/6/13,2:10:00,29-05.9200S,153-46.6400E,13,22.348,35.501
281,2015/6/13,2:11:00,29-05.7400S,153-46.6900E,13,22.361,35.5006
282,2015/6/13,2:12:00,29-05.5700S,153-46.7300E,14,22.378,35.4996
283,2015/6/13,2:13:00,29-05.3900S,153-46.7800E,12,22.388,35.4985
284,2015/6/13,2:14:00,29-05.2100S,153-46.8200E,12,22.397,35.4983
285,2015/6/13,2:15:00,29-05.0500S,153-46.8700E,12,22.403,35.498
286,2015/6/13,2:16:00,29-04.8700S,153-46.9200E,13,22.407,35.4973
287,2015/6/13,2:17:00,29-04.7000S,153-46.9700E,15,22.41,35.4977
288,2015/6/13,2:18:00,29-04.5300S,153-47.0200E,14,22.411,35.4966
289,2015/6/13,2:19:00,29-04.3500S,153-47.0700E,13,22.411,35.4969
290,2015/6/13,2:20:00,29-04.1700S,153-47.1200E,12,22.413,35.4971
291,2015/6/13,2:21:00,29-04.0000S,153-47.1600E,12,22.412,35.4964
292,2015/6/13,2:22:00,29-03.8000S,153-47.2100E,9,22.411,35.4962
293,2015/6/13,2:23:00,29-03.6300S,153-47.2500E,11,22.404,35.4964
294,2015/6/13,2:24:00,29-03.4500S,153-47.3000E,14,22.399,35.4964
295,2015/6/13,2:25:00,29-03.2800S,153-47.3500E,15,22.393,35.4969
296,2015/6/13,2:26:00,29-03.1000S,153-47.4000E,13,22.381,35.4965
297,2015/6/13,2:27:00,29-02.9200S,153-47.4500E,11,22.372,35.4973
298,2015/6/13,2:28:00,29-02.7400S,153-47.4900E,10,22.361,35.4974
299,2015/6/13,2:29:00,29-02.5700S,153-47.5300E,12,22.348,35.4981
300,2015/6/13,2:30:00,29-02.3900S,153-47.5800E,12,22.324,35.4994
301,2015/6/13,2:31:00,29-02.2100S,153-47.6200E,12,22.305,35.5002
302,2015/6/13,2:32:00,29-02.0300S,153-47.6700E,10,22.285,35.4999
303,2015/6/13,2:33:00,29-01.8600S,153-47.7100E,11,22.247,35.5021
304,2015/6/13,2:34:00,29-01.6800S,153-47.7600E,13,22.239,35.5029
305,2015/6/13,2:35:00,29-01.5100S,153-47.8000E,13,22.244,35.5048
306,2015/6/13,2:36:00,29-01.3300S,153-47.8500E,12,22.32,35.5032
307,2015/6/13,2:37:00,29-01.1600S,153-47.9000E,12,22.387,35.5016
308,2015/6/13,2:38:00,29-00.9800S,153-47.9400E,12,22.438,35.4974
309,2015/6/13,2:39:00,29-00.8000S,153-47.9900E,12,22.487,35.4947
310,2015/6/13,2:40:00,29-00.6200S,153-48.0300E,12,22.543,35.4926
311,2015/6/13,2:41:00,29-00.4500S,153-48.0800E,12,22.594,35.4896
312,2015/6/13,2:42:00,29-00.2700S,153-48.1200E,10,22.646,35.4852
313,2015/6/13,2:43:00,29-00.0900S,153-48.1600E,10,22.739,35.4831
314,2015/6/13,2:44:00,28-59.9200S,153-48.2000E,11,22.778,35.4809
315,2015/6/13,2:45:00,28-59.7500S,153-48.2400E,13,22.828,35.478
316,2015/6/13,2:46:00,28-59.5700S,153-48.2900E,12,22.851,35.4771
317,2015/6/13,2:47:00,28-59.3900S,153-48.3300E,12,22.877,35.4756
318,2015/6/13,2:48:00,28-59.2200S,153-48.3800E,11,22.897,35.4758
319,2015/6/13,2:49:00,28-59.0300S,153-48.4200E,10,22.911,35.475
320,2015/6/13,2:50:00,28-58.8600S,153-48.4600E,10,22.92,35.474
321,2015/6/13,2:51:00,28-58.6800S,153-48.4900E,10,22.931,35.4746
322,2015/6/13,2:52:00,28-58.5100S,153-48.5300E,11,22.938,35.4744
323,2015/6/13,2:53:00,28-58.3400S,153-48.5700E,12,22.949,35.4743
324,2015/6/13,2:54:00,28-58.1600S,153-48.6200E,13,22.952,35.4728
325,2015/6/13,2:55:00,28-57.9900S,153-48.6700E,12,22.953,35.4724
326,2015/6/13,2:56:00,28-57.8200S,153-48.7000E,10,22.955,35.4708
327,2015/6/13,2:57:00,28-57.6400S,153-48.7400E,10,22.955,35.4704
328,2015/6/13,2:58:00,28-57.4700S,153-48.7800E,10,22.956,35.4685
329,2015/6/13,2:59:00,28-57.2900S,153-48.8200E,11,22.957,35.469
330,2015/6/13,3:00:00,28-57.1200S,153-48.8600E,11,22.955,35.4691
331,2015/6/13,3:01:00,28-56.9400S,153-48.9000E,12,22.951,35.4682
332,2015/6/13,3:02:00,28-56.7700S,153-48.9400E,11,22.958,35.4695
333,2015/6/13,3:03:00,28-56.6000S,153-48.9800E,10,22.966,35.469
334,2015/6/13,3:04:00,28-56.4200S,153-49.0200E,11,22.97,35.4678
335,2015/6/13,3:05:00,28-56.2500S,153-49.0600E,11,22.974,35.4672
336,2015/6/13,3:06:00,28-56.0700S,153-49.1000E,11,22.971,35.4679
337,2015/6/13,3:07:00,28-55.9000S,153-49.1400E,13,22.965,35.4672
338,2015/6/13,3:08:00,28-55.7200S,153-49.1900E,11,22.958,35.4677
339,2015/6/13,3:09:00,28-55.5500S,153-49.2200E,8,22.949,35.4677
340,2015/6/13,3:10:00,28-55.3700S,153-49.2500E,9,22.938,35.4675
341,2015/6/13,3:11:00,28-55.2000S,153-49.2800E,8,22.925,35.4677
342,2015/6/13,3:12:00,28-55.0200S,153-49.3100E,8,22.913,35.4683
343,2015/6/13,3:13:00,28-54.8400S,153-49.3500E,11,22.899,35.4686
344,2015/6/13,3:14:00,28-54.6700S,153-49.3900E,10,22.892,35.469
345,2015/6/13,3:15:00,28-54.4900S,153-49.4200E,8,22.884,35.4709
346,2015/6/13,3:16:00,28-54.3100S,153-49.4500E,9,22.882,35.4713
347,2015/6/13,3:17:00,28-54.1200S,153-49.4800E,7,22.889,35.4718
348,2015/6/13,3:18:00,28-53.9500S,153-49.5100E,7,22.9,35.47
349,2015/6/13,3:19:00,28-53.7700S,153-49.5400E,9,22.907,35.469
350,2015/6/13,3:20:00,28-53.6000S,153-49.5800E,12,22.918,35.4688
351,2015/6/13,3:21:00,28-53.4200S,153-49.6200E,11,22.931,35.4688
352,2015/6/13,3:22:00,28-53.2500S,153-49.6600E,11,22.939,35.4665
353,2015/6/13,3:23:00,28-53.0700S,153-49.6900E,9,22.942,35.4677
354,2015/6/13,3:24:00,28-52.8900S,153-49.7300E,9,22.946,35.4667
355,2015/6/13,3:25:00,28-52.7200S,153-49.7600E,9,22.954,35.4669
356,2015/6/13,3:26:00,28-52.5500S,153-49.7900E,9,22.963,35.4648
357,2015/6/13,3:27:00,28-52.3700S,153-49.8300E,10,22.975,35.4639
358,2015/6/13,3:28:00,28-52.2000S,153-49.8700E,10,22.985,35.4628
359,2015/6/13,3:29:00,28-52.0200S,153-49.9100E,9,22.99,35.4624
360,2015/6/13,3:30:00,28-51.8500S,153-49.9300E,5,22.991,35.4608
361,2015/6/13,3:31:00,28-51.6700S,153-49.9500E,5,22.992,35.4604
362,2015/6/13,3:32:00,28-51.5000S,153-49.9600E,4,22.995,35.4594
363,2015/6/13,3:33:00,28-51.3200S,153-49.9800E,3,22.991,35.4594
364,2015/6/13,3:34:00,28-51.1500S,153-49.9900E,2,22.991,35.4588
365,2015/6/13,3:35:00,28-50.9700S,153-49.9800E,357,22.993,35.4596
366,2015/6/13,3:36:00,28-50.7900S,153-49.9700E,355,22.996,35.4598
367,2015/6/13,3:37:00,28-50.6200S,153-49.9500E,357,23,35.4589
368,2015/6/13,3:38:00,28-50.4400S,153-49.9500E,357,22.998,35.4595
369,2015/6/13,3:39:00,28-50.2600S,153-49.9400E,359,22.996,35.4586
370,2015/6/13,3:40:00,28-50.0800S,153-49.9400E,358,22.994,35.4595
371,2015/6/13,3:41:00,28-49.9000S,153-49.9300E,356,22.984,35.4602
372,2015/6/13,3:42:00,28-49.7300S,153-49.9100E,355,22.977,35.4598
373,2015/6/13,3:43:00,28-49.5400S,153-49.9000E,357,22.964,35.4605
374,2015/6/13,3:44:00,28-49.3500S,153-49.8900E,357,22.953,35.459
375,2015/6/13,3:45:00,28-49.1700S,153-49.8900E,358,22.941,35.4606
376,2015/6/13,3:46:00,28-48.9900S,153-49.8800E,358,22.935,35.4603
377,2015/6/13,3:47:00,28-48.8100S,153-49.8800E,358,22.925,35.4591
378,2015/6/13,3:48:00,28-48.6400S,153-49.8700E,359,22.924,35.4608
379,2015/6/13,3:49:00,28-48.4600S,153-49.8700E,358,22.923,35.4599
380,2015/6/13,3:50:00,28-48.2800S,153-49.8600E,359,22.917,35.4597
381,2015/6/13,3:51:00,28-48.1000S,153-49.8600E,358,22.93,35.4603
382,2015/6/13,3:52:00,28-47.9200S,153-49.8500E,358,22.943,35.4594
383,2015/6/13,3:53:00,28-47.7400S,153-49.8400E,357,22.949,35.4584